Weather History for Grand Rapids, MI

Change the Weather History Date:

Friday, November 2, 2012

  Actual Average Record
Temperature  
Mean Temperature 40 °F 45 °F  
Max Temperature 46 °F 54 °F 77 °F (1938)
Min Temperature 33 °F 37 °F 18 °F (1951)
Degree Days  
Heating Degree Days 25 20  
Month to date heating degree days 46 39  
Since 1 July heating degree days 616 631  
Cooling Degree Days 0 0  
Month to date cooling degree days 0 0  
Year to date cooling degree days 1039 699  
Moisture  
Dew Point 30 °F    
Average Humidity 71    
Maximum Humidity 89    
Minimum Humidity 53    
Precipitation  
Precipitation T in 0.13 in 2.69 in (2003)
Month to date precipitation T 0.25  
Year to date precipitation 30.51 32.51  
Snow  
Snow 0.00 in 0.10 in 1.50 in (1991)
Month to date snowfall 0.0 0.2  
Since 1 July snowfall T 0.7  
Since 1 September snowfall T 0.7  
Snow Depth 0.00 in    
Sea Level Pressure  
Sea Level Pressure 30.00 in    
Wind  
Wind Speed 9 mph (NW)    
Max Wind Speed 17 mph    
Max Gust Speed 24 mph    
Visibility 10 miles    
Events      
T = Trace of Precipitation, MM = Missing Value Source: NWS Daily Summary

Daily Weather History Graph

Daily Weather History Graph

Search for Another Location

Airport:

Trip Planner

Search our weather history database for the weather conditions in past years. The results will help you decide how hot, cold, wet, or windy it might be!

Date:

Astronomy

Nov. 02, 2012 Rise Set
Actual Time 8:18 AM EDT 6:32 PM EDT
Civil Twilight 7:48 AM EDT 7:01 PM EDT
Nautical Twilight 7:15 AM EDT 7:35 PM EDT
Astronomical Twilight 6:42 AM EDT 8:08 PM EDT
Moon 9:16 PM EDT (11/2) 11:41 AM EDT (11/2)
Length of Visible Light 11h 13m
Length of Day
10h 14m
Waning Gibbous, 87% of the Moon is Illuminated
Nov 2
Waning Gibbous
Nov 6
Last Quarter
Nov 13
New
Nov 20
First Quarter
Nov 28
Full

Hourly Weather History & Observations

Time (EDT) Temp. Windchill Dew Point Humidity Pressure Visibility Wind Dir Wind Speed Gust Speed Precip Events Conditions
12:53 AM 41.0 °F 35.2 °F 28.9 °F 62% 29.86 in 10.0 mi NW 9.2 mph - N/A   Overcast
1:53 AM 39.9 °F 32.9 °F 30.9 °F 70% 29.87 in 10.0 mi NNW 11.5 mph - N/A   Overcast
2:53 AM 39.0 °F 33.4 °F 28.9 °F 67% 29.88 in 10.0 mi NNW 8.1 mph - N/A   Clear
3:53 AM 39.9 °F 34.5 °F 26.1 °F 58% 29.89 in 10.0 mi WNW 8.1 mph - N/A   Mostly Cloudy
4:53 AM 39.0 °F 32.3 °F 28.9 °F 67% 29.89 in 10.0 mi WNW 10.4 mph - N/A   Overcast
5:53 AM 39.9 °F 32.5 °F 30.0 °F 68% 29.90 in 10.0 mi WNW 12.7 mph - N/A   Overcast
6:53 AM 39.0 °F 32.8 °F 30.9 °F 73% 29.92 in 10.0 mi NW 9.2 mph - N/A   Overcast
7:40 AM 39.2 °F 33.0 °F 32.0 °F 75% 29.92 in 10.0 mi NNW 9.2 mph 20.7 mph 0.00 in   Overcast
7:53 AM 39.0 °F 30.6 °F 30.9 °F 73% 29.95 in 10.0 mi NNW 15.0 mph 20.7 mph 0.00 in   Mostly Cloudy
8:13 AM 37.4 °F 30.3 °F 30.2 °F 75% 29.93 in 10.0 mi NNW 10.4 mph 19.6 mph N/A   Scattered Clouds
8:53 AM 37.0 °F 31.0 °F 30.0 °F 76% 29.97 in 10.0 mi NNW 8.1 mph - N/A   Partly Cloudy
9:53 AM 39.0 °F 33.4 °F 30.0 °F 70% 30.00 in 10.0 mi NNW 8.1 mph - N/A   Partly Cloudy
10:53 AM 41.0 °F 34.3 °F 28.9 °F 62% 30.01 in 10.0 mi NNW 11.5 mph 24.2 mph N/A   Partly Cloudy
11:53 AM 43.0 °F 36.4 °F 28.9 °F 58% 30.03 in 10.0 mi NNW 12.7 mph - N/A   Scattered Clouds
12:53 PM 43.0 °F 37.7 °F 28.9 °F 58% 30.03 in 10.0 mi NNW 9.2 mph - N/A   Mostly Cloudy
1:53 PM 44.1 °F 39.0 °F 28.9 °F 55% 30.04 in 10.0 mi NW 9.2 mph - N/A   Mostly Cloudy
2:53 PM 44.1 °F 38.6 °F 28.9 °F 55% 30.04 in 10.0 mi NW 10.4 mph - N/A   Mostly Cloudy
3:53 PM 44.1 °F 37.7 °F 30.0 °F 58% 30.04 in 10.0 mi WNW 12.7 mph - N/A   Mostly Cloudy
4:53 PM 44.1 °F 37.7 °F 30.9 °F 60% 30.05 in 10.0 mi WNW 12.7 mph - N/A   Mostly Cloudy
5:53 PM 44.1 °F 38.6 °F 30.0 °F 58% 30.06 in 10.0 mi NW 10.4 mph - N/A   Mostly Cloudy
6:53 PM 42.1 °F 36.1 °F 30.9 °F 65% 30.08 in 10.0 mi NNW 10.4 mph 18.4 mph N/A   Mostly Cloudy
7:53 PM 39.9 °F 34.5 °F 30.0 °F 68% 30.10 in 10.0 mi NNW 8.1 mph - N/A   Mostly Cloudy
8:53 PM 37.9 °F 32.7 °F 30.9 °F 76% 30.12 in 10.0 mi NNW 6.9 mph - N/A   Scattered Clouds
9:53 PM 36.0 °F 31.1 °F 30.9 °F 82% 30.13 in 10.0 mi NNW 5.8 mph - N/A   Partly Cloudy
10:53 PM 35.1 °F 30.1 °F 30.0 °F 82% 30.14 in 10.0 mi NNW 5.8 mph - N/A   Partly Cloudy
11:53 PM 34.0 °F 29.8 °F 30.0 °F 85% 30.14 in 10.0 mi NW 4.6 mph - N/A   Clear